Cherokee Lake Weather Center

Moon Phase Calendar



Cherokee Lake Water Level
Online Cameras

 


      

Current Conditions in Morristown
9/29/2022 5:16:44 PM

71°F
Feels Like 69
Clear
Humidity
40%
Pressure
30.12"
Wind
11.4 mph (NE)
Dew Point
45°F
UV Index
2/10 (Low)
Visibility
6 mi

Hourly Forecast

Date & Time Thu, Sep 29
5:00 PM
Thu, Sep 29
6:00 PM
Thu, Sep 29
7:00 PM
Thu, Sep 29
8:00 PM
Thu, Sep 29
9:00 PM
Thu, Sep 29
10:00 PM
Thu, Sep 29
11:00 PM
Fri, Sep 30
12:00 AM
Fri, Sep 30
1:00 AM
Fri, Sep 30
2:00 AM
Fri, Sep 30
3:00 AM
Fri, Sep 30
4:00 AM
Fri, Sep 30
5:00 AM
Fri, Sep 30
6:00 AM
Fri, Sep 30
7:00 AM
Fri, Sep 30
8:00 AM
Fri, Sep 30
9:00 AM
Fri, Sep 30
10:00 AM
Fri, Sep 30
11:00 AM
Fri, Sep 30
12:00 PM
Fri, Sep 30
1:00 PM
Fri, Sep 30
2:00 PM
Fri, Sep 30
3:00 PM
Fri, Sep 30
4:00 PM
Fri, Sep 30
5:00 PM
Fri, Sep 30
6:00 PM
Fri, Sep 30
7:00 PM
Fri, Sep 30
8:00 PM
Fri, Sep 30
9:00 PM
Fri, Sep 30
10:00 PM
Fri, Sep 30
11:00 PM
Sat, Oct 1
12:00 AM
Sat, Oct 1
1:00 AM
Sat, Oct 1
2:00 AM
Sat, Oct 1
3:00 AM
Sat, Oct 1
4:00 AM
Sat, Oct 1
5:00 AM
Sat, Oct 1
6:00 AM
Sat, Oct 1
7:00 AM
Sat, Oct 1
8:00 AM
Sat, Oct 1
9:00 AM
Sat, Oct 1
10:00 AM
Sat, Oct 1
11:00 AM
Sat, Oct 1
12:00 PM
Sat, Oct 1
1:00 PM
Sat, Oct 1
2:00 PM
Sat, Oct 1
3:00 PM
Sat, Oct 1
4:00 PM
Condition
Clear

Clear

Clear

Clear

Clear

Clear

Clear

Clear

Clear

Clear

Clear

Clear

Clear

Clear

Clouds

Clouds

Clouds

Clouds

Clouds

Clouds

Clouds

Clouds

Clouds

Clouds

Clouds

Clouds

Clouds

Clouds

Clouds

Clouds

Rain

Rain

Rain

Rain

Rain

Rain

Rain

Rain

Rain

Clouds

Clouds

Rain

Clouds

Clouds

Clouds

Clouds

Rain

Rain
Temperature 71°F70°F67°F63°F58°F52°F50°F48°F46°F45°F44°F43°F42°F42°F44°F46°F51°F56°F59°F61°F63°F64°F65°F64°F64°F61°F59°F56°F55°F54°F54°F53°F52°F51°F50°F51°F51°F52°F51°F51°F52°F52°F53°F54°F54°F54°F53°F53°F
Feels Like 69°F69°F66°F61°F56°F50°F46°F44°F43°F41°F40°F39°F38°F38°F40°F42°F49°F54°F57°F59°F62°F63°F63°F63°F62°F60°F57°F55°F54°F52°F52°F52°F51°F50°F50°F50°F51°F51°F51°F51°F51°F52°F52°F53°F53°F53°F53°F53°F
Cloudiness 0%0%0%0%0%0%0%0%0%1%0%0%0%9%28%40%100%100%100%100%100%100%100%100%100%100%100%100%100%100%100%100%100%100%100%100%100%100%100%100%100%100%100%100%100%100%100%100%
Visibility 6 mi6 mi6 mi6 mi6 mi6 mi6 mi6 mi6 mi6 mi6 mi6 mi6 mi6 mi6 mi6 mi6 mi6 mi6 mi6 mi6 mi6 mi6 mi6 mi6 mi6 mi6 mi6 mi6 mi6 mi6 mi6 mi6 mi5 mi3 mi5 mi5 mi6 mi6 mi6 mi6 mi6 mi6 mi6 mi6 mi6 mi6 mi6 mi
Precipitation 0%0%0%0%0%0%0%0%0%0%0%0%0%0%0%0%0%0%0%0%0%0%7%7%9%16%20%23%33%37%53%53%57%77%100%100%100%100%100%80%41%38%38%30%30%36%61%83%
Humidity 40%41%44%48%56%67%74%79%82%83%86%88%89%89%84%80%68%58%51%46%46%47%48%49%53%58%64%71%73%71%72%74%79%92%97%97%97%96%96%96%96%95%94%92%92%93%95%96%
Dew Point 45°F45°F45°F43°F43°F42°F42°F42°F42°F41°F41°F40°F40°F40°F40°F40°F41°F42°F41°F41°F43°F44°F45°F45°F47°F47°F47°F47°F47°F45°F45°F46°F46°F49°F50°F51°F51°F51°F51°F51°F51°F51°F52°F52°F52°F53°F52°F52°F
Pressure 30.12"30.12"30.12"30.15"30.15"30.18"30.18"30.18"30.15"30.15"30.15"30.15"30.12"30.12"30.12"30.12"30.12"30.09"30.06"30.06"30.03"30"29.97"29.94"29.94"29.94"29.94"29.91"29.91"29.91"29.88"29.85"29.83"29.83"29.83"29.83"29.83"29.83"29.83"29.85"29.85"29.88"29.88"29.88"29.88"29.91"29.91"29.91"
Wind Speed 11.4 mph11 mph9.1 mph8.7 mph8.4 mph7.7 mph7.5 mph7.2 mph7.1 mph7.3 mph6.9 mph6.8 mph6.6 mph6.6 mph6.8 mph6.8 mph8.1 mph10.8 mph12.2 mph13.1 mph13.1 mph12.7 mph12.7 mph11 mph9.8 mph10.2 mph9 mph5.6 mph4.3 mph4.1 mph1.9 mph2.7 mph3.3 mph3.8 mph4 mph5.1 mph6 mph4.9 mph3.9 mph3.7 mph4 mph3.9 mph3.9 mph4.3 mph5.1 mph6 mph5.1 mph4.3 mph
Wind
Direction
47°
NE
36°
NE
22°
NNE
20°
NNE
35°
NE
38°
NE
26°
NNE
39°
NE
43°
NE
52°
NE
52°
NE
53°
NE
43°
NE
54°
NE
60°
ENE
44°
NE
57°
ENE
57°
ENE
56°
NE
55°
NE
54°
NE
48°
NE
45°
NE
43°
NE
38°
NE
34°
NE
43°
NE
36°
NE
18°
NNE
16°
NNE
311°
NW
292°
WNW
286°
WNW
281°
W
285°
WNW
286°
WNW
314°
NW
320°
NW
295°
WNW
254°
WSW
264°
W
288°
WNW
306°
NW
303°
WNW
273°
W
280°
W
286°
WNW
291°
WNW

Daily Forecast

Date High Low Precip. Humidity
Today
Sep 29

Clear
71 °F
39 °F
0%
40%
Friday
Sep 30

Rain
65 °F
42 °F
53%
46%
Saturday
Oct 1

Rain
54 °F
50 °F
100%
93%
Sunday
Oct 2

Rain
55 °F
52 °F
45%
88%
Monday
Oct 3

Clouds
68 °F
50 °F
9%
61%
Tuesday
Oct 4

Clear
72 °F
47 °F
0%
47%
Wednesday
Oct 5

Clouds
70 °F
43 °F
0%
35%
Thursday
Oct 6

Clouds
72 °F
47 °F
0%
36%
Friday
Oct 7

Clouds
67 °F
51 °F
13%
52%
Saturday
Oct 8

Rain
65 °F
48 °F
57%
63%
Sunday
Oct 9

Rain
68 °F
47 °F
28%
44%
Monday
Oct 10

Clear
77 °F
47 °F
0%
35%
Tuesday
Oct 11

Clear
78 °F
51 °F
0%
37%
Wednesday
Oct 12

Clear
58 °F
40 °F
0%
26%
Thursday
Oct 13

Clouds
61 °F
35 °F
0%
29%
Friday
Oct 14

Clear
66 °F
37 °F
0%
32%

Temperature 8-14 Day Outlook



Precipitation 8-14 Day Outlook




Quick Links
Cherokee Lake News
Cherokee Lake Photos
Cherokee Lake Videos




About Us
Contact Us
Site Map
Search Site
Advertise With Us
   
www.CherokeeLake.info
THE CHEROKEE LAKE WEBSITE

Copyright 2022, Lakes Online
Privacy    |    Legal